• In Kazakhstan
  • List of Countries
  • For 7 days
  • Water Temperature
  • Satellite Maps
  • Weather Map
  • News
  • Weather Widgets
  • user-avatar
    Login

    Hourly Weather Lansing

    Today, 20 November, Monday

    Time Temperature Precipitation Wind Pressure Humidity
    00:00 -3°C° 0 mm 4 mps 738 mmHg 76%
    01:00 -3°C° 0 mm 4 mps 738 mmHg 76%
    02:00 -3°C° 0 mm 4 mps 738 mmHg 76%
    03:00 -4°C° 0 mm 5 mps 738 mmHg 76%
    04:00 -4°C° 0 mm 5 mps 738 mmHg 75%
    05:00 -4°C° 0 mm 5 mps 738 mmHg 74%
    06:00 -4°C° 0 mm 6 mps 737 mmHg 72%
    07:00 -3°C° 0 mm 6 mps 737 mmHg 69%
    08:00 -2°C° 0 mm 6 mps 737 mmHg 66%
    09:00 -1°C° 0 mm 6 mps 737 mmHg 63%
    10:00 +2°C° 0 mm 7 mps 736 mmHg 60%
    11:00 +3°C° 0 mm 7 mps 736 mmHg 57%
    12:00 +5°C° 0 mm 7 mps 735 mmHg 55%
    13:00 +5°C° 0 mm 7 mps 735 mmHg 56%
    14:00 +5°C° 0 mm 7 mps 734 mmHg 58%
    15:00 +5°C° 0 mm 7 mps 734 mmHg 59%
    16:00 +4°C° 0 mm 7 mps 734 mmHg 61%
    17:00 +3°C° 0 mm 7 mps 733 mmHg 63%
    18:00 +1°C° 0 mm 8 mps 733 mmHg 65%
    19:00 +1°C° 0 mm 8 mps 733 mmHg 65%
    20:00 +1°C° 0 mm 8 mps 733 mmHg 65%
    21:00 +1°C° 0 mm 8 mps 733 mmHg 65%
    22:00 +1°C° 0 mm 8 mps 732 mmHg 65%
    23:00 +1°C° 0 mm 8 mps 732 mmHg 64%

    Tomorrow, 21 November, Tuesday

    Time Temperature Precipitation Wind Pressure Humidity
    00:00 0°C° 0 mm 8 mps 731 mmHg 64%
    01:00 0°C° 0 mm 8 mps 731 mmHg 65%
    02:00 0°C° 0 mm 8 mps 730 mmHg 66%
    03:00 +1°C° 0 mm 8 mps 730 mmHg 67%
    04:00 +1°C° 0 mm 8 mps 730 mmHg 68%
    05:00 0°C° 0 mm 8 mps 729 mmHg 70%
    06:00 0°C° 0 mm 8 mps 729 mmHg 71%
    07:00 +1°C° 0 mm 8 mps 730 mmHg 70%
    08:00 +2°C° 0 mm 9 mps 730 mmHg 70%
    09:00 +3°C° 0 mm 9 mps 730 mmHg 69%
    10:00 +3°C° 0 mm 9 mps 731 mmHg 69%
    11:00 +4°C° 0 mm 8 mps 731 mmHg 68%
    12:00 +5°C° 0 mm 8 mps 732 mmHg 68%
    13:00 +3°C° 0.1 mm 7 mps 732 mmHg 66%
    14:00 +2°C° 0.1 mm 7 mps 733 mmHg 64%
    15:00 +1°C° 0.1 mm 6 mps 734 mmHg 63%
    16:00 -1°C° 0 mm 6 mps 735 mmHg 64%
    17:00 0°C° 0 mm 5 mps 736 mmHg 64%
    18:00 -1°C° 0 mm 5 mps 737 mmHg 65%
    19:00 -1°C° 0 mm 5 mps 737 mmHg 68%
    20:00 -2°C° 0 mm 4 mps 738 mmHg 71%
    21:00 -2°C° 0 mm 4 mps 739 mmHg 74%
    22:00 -3°C° 0 mm 4 mps 739 mmHg 74%
    23:00 -3°C° 0 mm 4 mps 740 mmHg 74%

    Day after tomorrow, 22 November, Wednesday

    Time Temperature Precipitation Wind Pressure Humidity
    00:00 -4°C° 0 mm 3 mps 740 mmHg 75%
    01:00 -4°C° 0 mm 3 mps 741 mmHg 74%
    02:00 -4°C° 0 mm 3 mps 741 mmHg 73%
    03:00 -4°C° 0 mm 3 mps 742 mmHg 72%
    04:00 -4°C° 0 mm 3 mps 742 mmHg 71%
    05:00 -4°C° 0 mm 2 mps 743 mmHg 69%
    06:00 -4°C° 0 mm 2 mps 743 mmHg 68%
    07:00 -3°C° 0 mm 2 mps 744 mmHg 63%
    08:00 -2°C° 0 mm 2 mps 744 mmHg 58%
    09:00 -1°C° 0 mm 2 mps 745 mmHg 53%
    10:00 -1°C° 0 mm 2 mps 745 mmHg 50%
    11:00 +1°C° 0 mm 2 mps 745 mmHg 47%
    12:00 +2°C° 0 mm 2 mps 744 mmHg 45%
    13:00 +2°C° 0 mm 2 mps 744 mmHg 46%
    14:00 +2°C° 0 mm 2 mps 744 mmHg 47%
    15:00 +2°C° 0 mm 2 mps 743 mmHg 49%
    16:00 +1°C° 0 mm 2 mps 743 mmHg 54%
    17:00 -1°C° 0 mm 2 mps 743 mmHg 59%
    18:00 0°C° 0 mm 1 mps 743 mmHg 64%
    19:00 0°C° 0 mm 1 mps 743 mmHg 65%
    20:00 0°C° 0 mm 1 mps 743 mmHg 67%
    21:00 0°C° 0 mm 1 mps 742 mmHg 69%
    22:00 -2°C° 0 mm 2 mps 742 mmHg 68%
    23:00 -2°C° 0 mm 2 mps 742 mmHg 68%

    23 November, Thursday

    Time Temperature Precipitation Wind Pressure Humidity
    00:00 -1°C° 0 mm 2 mps 741 mmHg 68%
    01:00 -2°C° 0 mm 2 mps 741 mmHg 68%
    02:00 -2°C° 0 mm 3 mps 740 mmHg 68%
    03:00 -2°C° 0 mm 3 mps 740 mmHg 68%
    04:00 -2°C° 0 mm 3 mps 739 mmHg 66%
    05:00 -2°C° 0 mm 3 mps 739 mmHg 64%
    06:00 -2°C° 0 mm 3 mps 739 mmHg 61%
    07:00 -1°C° 0 mm 3 mps 739 mmHg 57%
    08:00 -2°C° 0 mm 4 mps 738 mmHg 53%
    09:00 -1°C° 0 mm 4 mps 738 mmHg 49%
    10:00 0°C° 0 mm 4 mps 738 mmHg 48%
    11:00 +1°C° 0 mm 5 mps 737 mmHg 48%
    12:00 +2°C° 0 mm 5 mps 737 mmHg 47%
    13:00 +2°C° 0 mm 5 mps 736 mmHg 51%
    14:00 +3°C° 0 mm 4 mps 736 mmHg 54%
    15:00 +3°C° 0 mm 4 mps 736 mmHg 57%
    16:00 +2°C° 0 mm 3 mps 736 mmHg 63%
    17:00 0°C° 0 mm 3 mps 736 mmHg 69%
    18:00 -1°C° 0 mm 3 mps 736 mmHg 75%
    19:00 -1°C° 0 mm 2 mps 736 mmHg 77%
    20:00 -2°C° 0 mm 2 mps 737 mmHg 79%
    21:00 -2°C° 0 mm 2 mps 737 mmHg 81%
    22:00 -2°C° 0 mm 2 mps 737 mmHg 81%
    23:00 0°C° 0 mm 1 mps 737 mmHg 81%

    24 November, Friday

    Time Temperature Precipitation Wind Pressure Humidity
    00:00 0°C° 0 mm 1 mps 737 mmHg 81%
    01:00 0°C° 0 mm 1 mps 737 mmHg 80%
    02:00 0°C° 0 mm 1 mps 737 mmHg 80%
    03:00 0°C° 0 mm 1 mps 737 mmHg 79%
    04:00 -2°C° 0 mm 2 mps 736 mmHg 79%
    05:00 -2°C° 0 mm 2 mps 736 mmHg 79%
    06:00 -2°C° 0 mm 3 mps 736 mmHg 79%
    07:00 -2°C° 0 mm 4 mps 735 mmHg 75%
    08:00 -1°C° 0 mm 4 mps 735 mmHg 70%
    09:00 +1°C° 0 mm 5 mps 735 mmHg 66%
    10:00 +2°C° 0 mm 6 mps 733 mmHg 61%
    11:00 +4°C° 0 mm 7 mps 732 mmHg 57%
    12:00 +5°C° 0 mm 8 mps 731 mmHg 53%
    13:00 +5°C° 0 mm 8 mps 730 mmHg 55%
    14:00 +5°C° 0 mm 8 mps 729 mmHg 58%
    15:00 +5°C° 0 mm 8 mps 727 mmHg 60%
    16:00 +5°C° 0.3 mm 8 mps 727 mmHg 64%
    17:00 +5°C° 0.3 mm 8 mps 726 mmHg 68%
    18:00 +5°C° 0.3 mm 9 mps 726 mmHg 72%
    19:00 +5°C° 0.5 mm 9 mps 726 mmHg 74%
    20:00 +5°C° 0.5 mm 9 mps 725 mmHg 77%
    21:00 +6°C° 0.5 mm 10 mps 725 mmHg 79%
    22:00 +6°C° 0.1 mm 9 mps 725 mmHg 81%
    23:00 +6°C° 0.1 mm 8 mps 725 mmHg 83%

    25 November, Saturday

    Time Temperature Precipitation Wind Pressure Humidity
    00:00 +6°C° 0.1 mm 7 mps 725 mmHg 85%
    01:00 +5°C° 0 mm 6 mps 725 mmHg 85%
    02:00 +4°C° 0 mm 6 mps 725 mmHg 85%
    03:00 +3°C° 0 mm 5 mps 726 mmHg 86%
    04:00 +2°C° 0 mm 5 mps 726 mmHg 84%
    05:00 +2°C° 0 mm 5 mps 726 mmHg 82%
    06:00 +2°C° 0 mm 5 mps 726 mmHg 80%
    07:00 +2°C° 0 mm 6 mps 727 mmHg 76%
    08:00 +3°C° 0 mm 6 mps 727 mmHg 73%
    09:00 +3°C° 0 mm 7 mps 727 mmHg 70%
    10:00 +3°C° 0.1 mm 7 mps 728 mmHg 69%
    11:00 +3°C° 0.1 mm 7 mps 728 mmHg 69%
    12:00 +3°C° 0.1 mm 7 mps 728 mmHg 69%
    13:00 +2°C° 0.1 mm 7 mps 729 mmHg 67%
    14:00 0°C° 0.1 mm 7 mps 730 mmHg 65%
    15:00 -1°C° 0.1 mm 7 mps 730 mmHg 63%
    16:00 -2°C° 0 mm 7 mps 731 mmHg 64%
    17:00 -3°C° 0 mm 6 mps 732 mmHg 65%
    18:00 -3°C° 0 mm 6 mps 732 mmHg 66%
    19:00 -4°C° 0 mm 6 mps 733 mmHg 67%
    20:00 -4°C° 0 mm 5 mps 733 mmHg 68%
    21:00 -4°C° 0 mm 5 mps 733 mmHg 69%
    22:00 -5°C° 0 mm 5 mps 733 mmHg 68%
    23:00 -5°C° 0 mm 5 mps 733 mmHg 68%
    Show more